Regional Weather Roundup
Issued by NWS Upton, NY

Current Version | Previous Version | Graphics & Text | Print | Product List | Glossary Off
Versions: 1 2 3 4 5 6 7 8 9 10 11 12 13 14 15 16 17 18 19 20 21 22 23 24 25 26 27 28 29 30 31 32 33 34 35 36 37 38 39 40 41 42 43 44 45 46 47 48 49 50

000
ASUS41 KOKX 261405
RWROKX

REGIONAL WEATHER ROUNDUP
NATIONAL WEATHER SERVICE NEW YORK NY
900 AM EST MON JAN 26 2015

NOTE: "FAIR" INDICATES FEW OR NO CLOUDS BELOW 12,000 FEET WITH NO
SIGNIFICANT WEATHER AND/OR OBSTRUCTIONS TO VISIBILITY.

NYZ071-072-176-178-NJZ106-104-261500-
NEW YORK CITY METRO AREA


CITY           SKY/WX    TMP DP  RH WIND       PRES   REMARKS
CENTRAL PARK   LGT SNOW  24  16  71 E13G18    30.02S VSB 3/4 WCI  12
LAGUARDIA APRT LGT SNOW  25  18  74 NE21      30.01S VSB 1   WCI  11
KENNEDY INTL   LGT SNOW  25  18  74 NE14G23   30.01F WCI  13
NEWARK/LIBERTY LGT SNOW  25  17  72 E12       30.01R WCI  14
BRNX BOT. GARD   N/A    N/A N/A N/A E9        30.03S
TETERBORO      LGT SNOW  21  14  73 NE8       30.02R FOG     WCI  12
$$

NYZ177-179-078>081-261500-
LONG ISLAND NEW YORK

CITY           SKY/WX    TMP DP  RH WIND       PRES   REMARKS
FARMINGDALE    LGT SNOW  24  19  81 NE16G23   30.00F WCI  11
ISLIP          LGT SNOW  24  18  77 NE15      29.99F VSB 1   WCI  11
SHIRLEY        LGT SNOW  24  18  77 VRB6      30.03R VSB 1   WCI  17
WESTHAMPTON    LGT SNOW  25  15  66 NE14      30.04R WCI  13
MONTAUK POINT    N/A     25  18  74 NE12G22   30.04F WCI  14
$$

NYZ052-065-067-261500-
HUDSON VALLEY

CITY           SKY/WX    TMP DP  RH WIND       PRES   REMARKS
WHITE PLAINS   FLURRIES  21   6  52 E12G17    29.99S WCI   9
NEWBURGH       CLOUDY    14   7  73 NE12      30.03S WCI   0
MONTGOMERY     CLOUDY    15   4  61 NE13      30.01F WCI   1
POUGHKEEPSIE   CLOUDY    16   3  56 N12       30.05F WCI   3
ALBANY         CLOUDY    10  -3  55 N10       30.12S WCI  -4
$$

NJZ001-105-106-008-010-013-015-019>022-104-261500-
NEW JERSEY

CITY           SKY/WX    TMP DP  RH WIND       PRES   REMARKS
NEWARK/LIBERTY LGT SNOW  25  17  72 E12       30.01R WCI  14
TETERBORO      LGT SNOW  21  14  73 NE8       30.02R FOG     WCI  12
CALDWELL       LGT SNOW  19  15  84 NE8       30.01S FOG     WCI   9
MORRISTOWN     LGT SNOW  19  16  86 NE9G17    30.01R WCI   9
SOMERVILLE     FLURRIES  21  14  74 NE7       29.98R WCI  12
SUSSEX         CLOUDY    15   5  64 NE10      29.98F WCI   2
ANDOVER          N/A     15   9  76 VRB5      29.97S WCI   8
TRENTON        LGT SNOW  23  18  81 NE9       29.94F VSB 1   WCI  13
MILLVILLE      LGT SNOW  32  29  88 NE14      29.85F FOG     WCI  22
ATLANTIC CITY  LGT SNOW  33  31  92 NE16G25   29.87F VSB 3/4 WCI  23
WRIGHTSTOWN    LGT SNOW  27  25  90 NE15      29.90F FOG     WCI  16
TOMS RIVER     CLOUDY    30  27  86 NE14      29.93F WCI  20
BELMAR         CLOUDY    28  19  69 NE15G24   29.94S WCI  17
$$

PAZ047>061-062-071-261500-
EASTERN PENNSYLVANIA

CITY           SKY/WX    TMP DP  RH WIND       PRES   REMARKS
PHILADELPHIA   LGT SNOW  28  23  81 NE14G23   29.92F WCI  17
ALLENTOWN      LGT SNOW  19  13  77 NE14      29.95S WCI   6
SCRANTON       LGT SNOW  19  10  68 NE9       29.89R WCI   8
$$

CTZ002-004>006-009-010-012-RIZ004-006-007-MAZ004-011-015-261500-
SOUTHERN NEW ENGLAND
 IN CT

CITY           SKY/WX    TMP DP  RH WIND       PRES   REMARKS
BRADLEY INTL   CLOUDY    14   0  53 N14       30.11R WCI  -1
HARTFORD       CLOUDY    15   2  56 N13       30.11S WCI   1
DANBURY        CLOUDY    17  -1  45 NE9       30.03S WCI   6
WTRBRY/OXFORD  CLOUDY    16  -2  45 NE12G20   29.99F WCI   3
BRIDGEPORT     CLOUDY    21   8  57 NE14      30.05S WCI   8
MERIDEN        CLOUDY    17   3  54 NE12G18   30.07F WCI   4
NEW HAVEN      CLOUDY    20   7  57 NE13      30.05S WCI   7
CHESTER        PTSUNNY   19   3  49 NE10      30.03F WCI   8
GROTON         CLOUDY    20   7  57 NE14      30.06F WCI   7
WILLIMANTIC    CLOUDY    16   0  49 NE12      30.09F WCI   3

 IN RI

CITY           SKY/WX    TMP DP  RH WIND       PRES   REMARKS
PROVIDENCE     CLOUDY    16   5  62 N12       30.11F WCI   3
BLOCK ISLAND   CLOUDY    25  16  68 NE14G23   30.03S WCI  13
WESTERLY       CLOUDY    19   7  59 NE10      30.06F WCI   7

 IN MA

CITY           SKY/WX    TMP DP  RH WIND       PRES   REMARKS
BOSTON         CLOUDY    14   3  61 N10       30.15S WCI   1
WORCESTER      CLOUDY     9  -4  55 NE9       30.05S WCI  -4
WESTFIELD      CLOUDY    12  -2  53 N9        30.11S WCI   0
PROVINCETOWN   PTSUNNY   28  18  64 NE14      30.11F WCI  17
NANTUCKET      FLURRIES  32  22  66 NE13G24   30.05F WCI  22
$$

ANZ330-335-338-340-345-350-353-355-261500-
COASTAL MARINE OBSERVATIONS


STATION/POSITION TIME  SKY/WX   TEMP    WIND        PRES    VSBY  WAVE
                                AIR SEA DIR/SP/G                  HT/PER
                 (UTC)          (F)     (DEG/KT/KT) (MB)    (MI)  (FT/S)
NY HARB ENTRANCE 1400            29 42   50/ 23/ 29 1014.0          6/ 6
4S FIRE IS       1400               39                N/A           6/ 5
20S FIRE ISLAND  1300               41              1014.5          6/ 6
23SW MTP         1400                                 N/A           6/ 5
HUDSON CANYON    NOT AVBL
EXECUTION ROCKS  1400            25 35   60/ 21/ 25   N/A
WESTERN LI SOUND 1300            24      60/ 19/ 23   N/A           3/ 4
CENTRAL LI SOUND 1300            23 36   70/ 17/ 23   N/A           2/ 4
EASTERN LI SOUND NOT AVBL
ROBBINS REEF     1300            25      50/ 18/ 20 1014.5
$$


>>>>>>>>>>>>>>>>>>>>>>>>>>>> KEY <<<<<<<<<<<<<<<<<<<<<<<<<<<
>                                                          <
>     SKY/WX - SKY CONDITION/PRESENT WEATHER               <
>     TMP    - TEMPERATURE IN FAHRENHEIT                   <
>     DP     - DEWPOINT IN FAHRENHEIT                      <
>     RH     - RELATIVE HUMIDITY IN PERCENT                <
>     WIND   - DIRECTION AND SPEED IN MPH                  <
>     PRES   - MEAN SEA LEVEL PRESSURE IN INCHES OF HG     <
>     WCI    - WIND CHILL INDEX                            <
>     VSB    - VISIBILITY IN MILES                         <
>     HX     - HEAT INDEX                                  <
>     TC     - TEMPERATURE IN CELSIUS                      <
>     VRB    - VARIABLE WIND DIRECTION                     <
>                                                          <
>>>>>>>>>>>>>>>>>>>>>>>>>>>> KEY <<<<<<<<<<<<<<<<<<<<<<<<<<<




USA.gov is the U.S. government's official web portal to all federal, state and local government web resources and services.